| time (UTC) | temp C | wind direction | speed KPH | gust KPH | rain 1hr cm | rain 24hr cm | rain mn cm | humidity % | barometer mb |
| 20260503180058 | 14 | 185 | 8.0 | 12.9 | 0.00 | 0.00 | 0.00 | 79 | 1014.2 |
| 20260503180036 | 15 | 250 | 3.2 | 14.5 | 0.00 | 0.00 | 0.00 | 66 | 1012.2 |
| 20260503174606 | 14 | 198 | 9.7 | 14.5 | 0.00 | 0.00 | 0.00 | 77 | 1014.2 |
| 20260503174534 | 16 | 63 | 1.6 | 6.4 | 0.00 | 0.00 | 0.00 | 68 | 1012.2 |
| 20260503173101 | 15 | 203 | 9.7 | 22.5 | 0.00 | 0.00 | 0.00 | 76 | 1014.1 |
| 20260503173029 | 15 | 292 | 1.6 | 6.4 | 0.00 | 0.00 | 0.00 | 67 | 1012.0 |
| 20260503171556 | 15 | 138 | 9.7 | 14.5 | 0.00 | 0.00 | 0.00 | 78 | 1014.1 |
| 20260503171527 | 15 | 312 | 3.2 | 8.0 | 0.00 | 0.00 | 0.00 | 69 | 1012.1 |
| 20260503170105 | 13 | 184 | 8.0 | 14.5 | 0.00 | 0.00 | 0.00 | 78 | 1014.0 |
| 20260503120105 | 12 | 200 | 1.6 | 4.8 | 0.00 | 0.00 | 0.00 | 88 | 1011.7 |
| 20260503100104 | 13 | 41 | 0.0 | 3.2 | 0.00 | 0.00 | 0.00 | 75 | 1010.0 |
| 20260503081554 | 12 | 282 | 1.6 | 4.8 | 0.00 | 0.00 | 0.00 | 83 | 1012.3 |
| 20260503081550 | 13 | 34 | 0.0 | 1.6 | 0.00 | 0.00 | 0.00 | 75 | 1010.7 |
| 20260503071557 | 12 | 19 | 6.4 | 14.5 | 0.00 | 0.00 | 0.00 | 83 | 1012.4 |
| 20260503071536 | 13 | 311 | 0.0 | 3.2 | 0.00 | 0.00 | 0.00 | 75 | 1011.0 |
| 20260503054552 | 12 | 25 | 9.7 | 20.9 | 0.00 | 0.00 | 0.00 | 84 | 1012.4 |
| 20260503054550 | 14 | 48 | 0.0 | 4.8 | 0.00 | 0.00 | 0.00 | 74 | 1011.1 |
| 20260503053055 | 12 | 26 | 8.0 | 17.7 | 0.00 | 0.00 | 0.00 | 84 | 1012.7 |
| 20260503053037 | 14 | 28 | 1.6 | 3.2 | 0.00 | 0.00 | 0.00 | 74 | 1011.2 |
| 20260503051555 | 12 | 38 | 12.9 | 24.1 | 0.00 | 0.00 | 0.00 | 85 | 1012.5 |
| 20260503051528 | 14 | 54 | 0.0 | 8.0 | 0.00 | 0.00 | 0.00 | 73 | 1011.3 |
| 20260503050055 | 12 | 17 | 14.5 | 22.5 | 0.00 | 0.00 | 0.00 | 85 | 1012.7 |
| 20260503050028 | 14 | 40 | 0.0 | 3.2 | 0.00 | 0.00 | 0.00 | 73 | 1011.4 |
| 20260503044612 | 12 | 28 | 14.5 | 24.1 | 0.00 | 0.00 | 0.00 | 86 | 1012.5 |
| 20260503044528 | 14 | 24 | 0.0 | 4.8 | 0.00 | 0.00 | 0.00 | 73 | 1011.3 |
| 20260503043100 | 12 | 11 | 14.5 | 25.7 | 0.00 | 0.00 | 0.00 | 86 | 1012.4 |
| 20260503043027 | 14 | 336 | 0.0 | 3.2 | 0.00 | 0.00 | 0.00 | 73 | 1011.1 |
| 20260503041612 | 12 | 13 | 12.9 | 20.9 | 0.00 | 0.00 | 0.00 | 86 | 1012.2 |
| 20260503041527 | 14 | 37 | 0.0 | 6.4 | 0.00 | 0.00 | 0.00 | 73 | 1011.0 |
| 20260503040058 | 12 | 347 | 11.3 | 20.9 | 0.00 | 0.00 | 0.00 | 85 | 1011.9 |
| 20260503040034 | 15 | 15 | 0.0 | 4.8 | 0.00 | 0.00 | 0.00 | 73 | 1010.8 |
| 20260503034603 | 12 | 13 | 11.3 | 19.3 | 0.00 | 0.00 | 0.00 | 85 | 1012.0 |
| 20260503034526 | 15 | 38 | 1.6 | 6.4 | 0.00 | 0.00 | 0.00 | 72 | 1010.8 |
| 20260503033116 | 12 | 32 | 11.3 | 20.9 | 0.00 | 0.00 | 0.00 | 84 | 1011.8 |
| 20260503033029 | 15 | 31 | 1.6 | 4.8 | 0.00 | 0.00 | 0.00 | 72 | 1010.6 |
| 20260503031558 | 12 | 350 | 11.3 | 19.3 | 0.00 | 0.00 | 0.00 | 84 | 1011.7 |
| 20260503031524 | 15 | 44 | 1.6 | 4.8 | 0.00 | 0.00 | 0.00 | 71 | 1010.6 |
| 20260503030105 | 12 | 30 | 8.0 | 16.1 | 0.00 | 0.00 | 0.00 | 84 | 1011.6 |
| 20260503030026 | 15 | 19 | 1.6 | 4.8 | 0.00 | 0.00 | 0.00 | 71 | 1010.2 |
| 20260503024603 | 13 | 40 | 6.4 | 11.3 | 0.00 | 0.00 | 0.00 | 83 | 1011.5 |
| 20260503024522 | 15 | 92 | 0.0 | 3.2 | 0.00 | 0.00 | 0.00 | 71 | 1010.3 |
| 20260503023057 | 13 | 49 | 4.8 | 12.9 | 0.00 | 0.00 | 0.00 | 82 | 1011.4 |
| 20260503023021 | 16 | 35 | 3.2 | 12.9 | 0.00 | 0.00 | 0.00 | 70 | 1010.0 |
| 20260503021609 | 13 | 67 | 3.2 | 12.9 | 0.00 | 0.00 | 0.00 | 82 | 1011.5 |
| 20260503021521 | 16 | 38 | 1.6 | 6.4 | 0.00 | 0.00 | 0.00 | 69 | 1009.8 |
| 20260503020109 | 13 | 38 | 1.6 | 12.9 | 0.00 | 0.00 | 0.00 | 83 | 1011.5 |
| 20260503020021 | 16 | 46 | 3.2 | 6.4 | 0.00 | 0.00 | 0.00 | 68 | 1009.9 |
| 20260503014558 | 13 | 178 | 9.7 | 17.7 | 0.00 | 0.00 | 0.00 | 83 | 1011.6 |
| 20260503014521 | 17 | 34 | 1.6 | 9.7 | 0.00 | 0.00 | 0.00 | 67 | 1010.0 |
| 20260503013058 | 13 | 165 | 12.9 | 27.4 | 0.00 | 0.00 | 0.00 | 83 | 1011.7 |
| 20260503013022 | 17 | 44 | 0.0 | 6.4 | 0.00 | 0.00 | 0.00 | 65 | 1009.9 |
| 20260503011607 | 13 | 186 | 12.9 | 25.7 | 0.00 | 0.00 | 0.00 | 83 | 1011.7 |
| 20260503011523 | 17 | 41 | 0.0 | 6.4 | 0.00 | 0.00 | 0.00 | 66 | 1009.9 |
| 20260503010103 | 13 | 189 | 16.1 | 27.4 | 0.00 | 0.00 | 0.00 | 82 | 1011.7 |
| 20260503010025 | 18 | 59 | 0.0 | 4.8 | 0.00 | 0.00 | 0.00 | 64 | 1009.9 |
| 20260503004600 | 13 | 209 | 19.3 | 32.2 | 0.00 | 0.00 | 0.00 | 81 | 1011.8 |
| 20260503004519 | 18 | 38 | 1.6 | 8.0 | 0.00 | 0.00 | 0.00 | 63 | 1009.9 |
| 20260503003102 | 13 | 183 | 22.5 | 33.8 | 0.00 | 0.00 | 0.00 | 80 | 1011.8 |
| 20260503003020 | 20 | 44 | 3.2 | 9.7 | 0.00 | 0.00 | 0.00 | 61 | 1009.9 |
| 20260503001603 | 13 | 183 | 20.9 | 30.6 | 0.00 | 0.00 | 0.00 | 79 | 1012.0 |
| 20260503001517 | 20 | 57 | 1.6 | 9.7 | 0.00 | 0.00 | 0.00 | 60 | 1009.9 |
| 20260503000057 | 14 | 203 | 20.9 | 33.8 | 0.00 | 0.00 | 0.00 | 80 | 1012.0 |
| 20260503000016 | 20 | 67 | 3.2 | 8.0 | 0.00 | 0.00 | 0.00 | 59 | 1009.9 |
| 20260502234556 | 14 | 201 | 20.9 | 37.0 | 0.00 | 0.00 | 0.00 | 80 | 1012.1 |
| 20260502234524 | 21 | 39 | 1.6 | 6.4 | 0.00 | 0.00 | 0.00 | 58 | 1009.9 |
| 20260502233115 | 21 | 40 | 1.6 | 6.4 | 0.00 | 0.00 | 0.00 | 57 | 1009.9 |
| 20260502233056 | 13 | 187 | 22.5 | 30.6 | 0.00 | 0.00 | 0.00 | 81 | 1012.2 |
| 20260502231558 | 13 | 195 | 20.9 | 29.0 | 0.00 | 0.00 | 0.00 | 81 | 1012.3 |
| 20260502231513 | 21 | 28 | 1.6 | 8.0 | 0.00 | 0.00 | 0.00 | 57 | 1009.8 |
| 20260502230058 | 13 | 190 | 20.9 | 29.0 | 0.00 | 0.00 | 0.00 | 82 | 1012.7 |
| 20260502230012 | 22 | 50 | 1.6 | 6.4 | 0.00 | 0.00 | 0.00 | 56 | 1010.0 |
| 20260502224558 | 14 | 191 | 19.3 | 27.4 | 0.00 | 0.00 | 0.00 | 81 | 1013.0 |
| 20260502224512 | 22 | 19 | 1.6 | 4.8 | 0.00 | 0.00 | 0.00 | 55 | 1010.0 |
| 20260502223101 | 14 | 191 | 17.7 | 22.5 | 0.00 | 0.00 | 0.00 | 82 | 1013.1 |
| 20260502223009 | 22 | 26 | 4.8 | 12.9 | 0.00 | 0.00 | 0.00 | 57 | 1010.3 |
| 20260502221556 | 13 | 196 | 16.1 | 20.9 | 0.00 | 0.00 | 0.00 | 83 | 1013.6 |
| 20260502221507 | 23 | 46 | 1.6 | 4.8 | 0.00 | 0.00 | 0.00 | 54 | 1010.7 |
| 20260502220141 | 13 | 196 | 14.5 | 20.9 | 0.00 | 0.00 | 0.00 | 83 | 1013.8 |
| 20260502220005 | 23 | 300 | 0.0 | 4.8 | 0.00 | 0.00 | 0.00 | 54 | 1010.8 |
| 20260502214555 | 13 | 200 | 12.9 | 22.5 | 0.00 | 0.00 | 0.00 | 84 | 1014.1 |
| 20260502214504 | 21 | 150 | 1.6 | 8.0 | 0.00 | 0.00 | 0.00 | 57 | 1011.1 |
| 20260502213109 | 20 | 178 | 0.0 | 4.8 | 0.00 | 0.00 | 0.00 | 60 | 1011.2 |
| 20260502213102 | 14 | 186 | 14.5 | 24.1 | 0.00 | 0.00 | 0.00 | 84 | 1014.2 |
| 20260502211557 | 21 | 45 | 0.0 | 4.8 | 0.00 | 0.00 | 0.00 | 60 | 1011.4 |
| 20260502210055 | 20 | 57 | 0.0 | 6.4 | 0.00 | 0.00 | 0.00 | 63 | 1011.8 |
| 20260502204608 | 13 | 195 | 12.9 | 19.3 | 0.00 | 0.00 | 0.00 | 85 | 1014.4 |
| 20260502204605 | 20 | 53 | 0.0 | 3.2 | 0.00 | 0.00 | 0.00 | 64 | 1012.0 |
| 20260502203108 | 13 | 165 | 11.3 | 17.7 | 0.00 | 0.00 | 0.00 | 86 | 1014.8 |
| 20260502203055 | 20 | 53 | 0.0 | 4.8 | 0.00 | 0.00 | 0.00 | 61 | 1012.1 |
| 20260502201553 | 13 | 205 | 11.3 | 17.7 | 0.00 | 0.00 | 0.00 | 86 | 1014.8 |
| 20260502200055 | 13 | 185 | 8.0 | 14.5 | 0.00 | 0.00 | 0.00 | 86 | 1015.1 |
| 20260502200048 | 18 | 211 | 0.0 | 4.8 | 0.00 | 0.00 | 0.00 | 69 | 1012.5 |
| 20260502194557 | 13 | 200 | 9.7 | 14.5 | 0.00 | 0.00 | 0.00 | 86 | 1015.2 |
| 20260502194547 | 17 | 178 | 0.0 | 8.0 | 0.00 | 0.00 | 0.00 | 71 | 1012.6 |
| 20260502193057 | 13 | 212 | 8.0 | 17.7 | 0.00 | 0.00 | 0.00 | 86 | 1015.3 |
| 20260502193051 | 17 | 189 | 0.0 | 3.2 | 0.00 | 0.00 | 0.00 | 70 | 1012.7 |
| 20260502191619 | 13 | 221 | 8.0 | 17.7 | 0.00 | 0.00 | 0.00 | 86 | 1015.4 |
| 20260502191547 | 16 | 192 | 0.0 | 8.0 | 0.00 | 0.00 | 0.00 | 73 | 1013.0 |
| 20260502190106 | 12 | 180 | 9.7 | 17.7 | 0.00 | 0.00 | 0.00 | 86 | 1015.4 |
| 20260502190042 | 16 | 219 | 0.0 | 3.2 | 0.00 | 0.00 | 0.00 | 72 | 1012.9 |
| 20260502184556 | 12 | 198 | 11.3 | 17.7 | 0.00 | 0.00 | 0.00 | 86 | 1015.3 |
| 20260502184552 | 16 | 219 | 0.0 | 8.0 | 0.00 | 0.00 | 0.00 | 75 | 1012.9 |
| 20260502183102 | 12 | 186 | 11.3 | 20.9 | 0.00 | 0.00 | 0.00 | 86 | 1015.4 |
| 20260502183038 | 15 | 20 | 1.6 | 6.4 | 0.00 | 0.00 | 0.00 | 76 | 1012.9 |
| 20260502181600 | 13 | 170 | 11.3 | 22.5 | 0.00 | 0.00 | 0.00 | 85 | 1015.3 |
| 20260502181538 | 15 | 225 | 0.0 | 4.8 | 0.00 | 0.00 | 0.00 | 77 | 1013.0 |